STARLINK-5170, 54062

Orbit data source: Space-Track

STARLINK-5170, 54062 is a payload satellite owned by SpaceX/Seattle (US) in LEO that was launched on Thu, 20 Oct 2022 UTC via an FALCON 9 launch vehicle from the Air Force Eastern Test Range (AFETR). Payload-class satellites include a variety of spacecraft equipped with specific instruments for various scientific and technological missions. These include communications satellites like Starlink; space stations such as the ISS; scientific satellites like the Hubble; Earth observation satellites from companies like Planet Labs, Umbra, and HawkEye 360; GPS; miniature CubeSats for education and research; and military/defense satellites.

Loading next visibility...
Identifier
54062, 2022-136M
Orbit
LEO
Country
Flag of USUS
Related business
Manufacturer
SpaceX/Seattle
Mission
Operational Commercial Communications
Bus & Motor
STARLINK, Unknown motor
Mass
305 kg wet, ~290 kg dry
Launch date (UTC)
2022-10-20 (3 years ago)
Launch vehicle
FALCON 9
Launch site
Air Force Eastern Test Range (AFETR)
Object type
Payload
Rocket body
Debris
Shape & HBR
Box + 1 Pan, 10.1 m
Radar Cross Section
13.562 m², Large (>1 m²)

Expand to show TLE details & history
Last TLE update: 9 hours ago

TLE from 9 hours ago
0 STARLINK-5170
1 54062U 22136M   25303.92048488  .00001302  00000-0  99869-4 0  9998
2 54062  53.2172 206.6480 0001426  85.7541 274.3614 15.08837933167253
Epoch: 2025-10-30T22:05Z
TLE epoch observation values (Epoch: 2025-10-30T22:05:29.893Z)
Latitude
-0.00004°
Longitude
-164.19893°
Altitude
540.572 km
Speed
7.593 km/s
True Right ascension
13h 46m 35s
True Declination
0° 00' 00"
Sunlit
Object was in daylight at epoch
Visualization orbit readout
Latitude
Unknown
Longitude
Unknown
Altitude
Unknown
Speed
Unknown
Apparent Right ascension
Unknown
Apparent Declination
Unknown
Sunlit
N/A
Visualization observer readout
Local Sidereal Time
02:50:19
Azimuth
Unknown
Elevation
Unknown
Doppler factor
Unknown
Orbital elements
Apogee altitude
540.981 km
Perigee altitude
539.008 km
Semi-major axis
6,918.132 km
Eccentricity
0.00014
Inclination
53.2172°
RAAN
206.648°
Arg. of periapsis
85.7541°
True anomaly
274.34511°
Mean anomaly
274.3614°
Eccentric anomaly
274.35325°
Mean motion
3.7719 °/min
Orbital period
95.44 mins
BSTAR
0.000099869
Loading maneuver chart data...
Computing Atmospheric mass density...
Loading historical data...
Loading historical data...
Loading historical data...
Loading historical data...
Loading historical data...
Loading historical data...
Loading historical data...

Documentation

Showing up to 5 results
|